Tracking 28790 objects as of 19-Apr-2024
HD Live streaming from Space Station
objects crossing your sky now

SL-14 DEB

Track SL-14 DEB now!
10-day predictions


NORAD ID: 39973
Int'l Code: 1987-068CZ
Perigee: 742.3 km
Apogee: 781.5 km
Inclination: 83.0 °
Period: 99.9 minutes
Semi major axis: 7132 km
RCS: 0.0059 m2 (small)
Launch date: August 18, 1987
Source: Commonwealth of Independent States (former USSR) (CIS)
Launch site: PLESETSK MISSILE AND SPACE COMPLEX (PKMTR)

Note: This is SATELLITE DEBRIS
Your satellite tracking list
Your tracking list is empty




NASA's NSSDC Master Catalog

Two Line Element Set (TLE):
1 39973U 87068CZ  24108.01475147  .00015252  00000-0  47005-2 0  9997
2 39973  83.0337 207.0008 0027489 153.1540 207.1083 14.41130098515961
Source of the keplerian elements: AFSPC